Regional Weather Roundup
Issued by NWS

Current Version | Previous Version | Text Only | Print | Product List | Glossary On
Versions: 1 2 3 4 5 6 7 8 9 10 11 12 13 14 15 16 17 18 19 20 21 22 23 24 25 26 27 28 29 30 31 32 33 34 35 36 37 38 39 40 41 42 43 44 45 46 47 48 49 50
000
ASUS45 KBOI 030410
RWRID

IDAHO REGIONAL WEATHER ROUNDUP
NATIONAL WEATHER SERVICE BOISE ID
1000 PM MDT SUN AUG 02 2015

NOTE: "FAIR" INDICATES FEW OR NO CLOUDS BELOW 12000 FEET
WITH NO SIGNIFICANT WEATHER AND/OR OBSTRUCTIONS TO VISIBILITY

IDZ012-014-030500-
SOUTHWEST IDAHO


CITY           SKY/WX    TMP DP  RH WIND       PRES   REMARKS
BOISE          MOCLDY    89  51  27 CALM      29.77S
CALDWELL       MOCLDY    81  52  36 E6        29.75S
MOUNTAIN HOME  CLOUDY    91  40  16 N6        29.78S
$$

IDZ016-017-030500-
SOUTHCENTRAL IDAHO


CITY           SKY/WX    TMP DP  RH WIND       PRES   REMARKS
BURLEY         MOCLDY    70  55  59 SW6       29.88R
JEROME         MOCLDY    76  44  32 E5        29.89S
TWIN FALLS     MOCLDY    84  35  17 S12       29.86F
$$

IDZ019>023-030500-
SOUTHEAST IDAHO


CITY           SKY/WX    TMP DP  RH WIND       PRES   REMARKS
IDAHO FALLS    PTCLDY    63  48  58 N5        29.95S
POCATELLO      CLEAR     74  38  27 SE5       29.92S
REXBURG        MOCLDY    69  48  47 NE5       29.97R
$$

IDZ006-010-011-018-031-032-030500-
CENTRAL IDAHO MOUNTAINS


CITY           SKY/WX    TMP DP  RH WIND       PRES   REMARKS
MCCALL         CLOUDY    82  22  11 N12       29.98R
HAILEY         CLEAR     72  46  40 CALM      30.02R
STANLEY          N/A     65  37  35 SE3       30.12R
SALMON         PTCLDY    75  43  31 S5        29.89R
CHALLIS        CLOUDY    74  45  35 MISG      29.97R
$$

IDZ002-004-006-007-026-030500-
NORTHERN IDAHO


CITY           SKY/WX    TMP DP  RH WIND       PRES   REMARKS
LEWISTON       PTCLDY    92  27   9 SW6       29.76R
LOWELL           N/A     73  52  47 CALM      29.78R
COEUR D`ALENE  CLEAR     81  36  19 E3        29.82R
MULLAN PASS    CLEAR     72  20  14 NW6       30.12S
$$


USA.gov is the U.S. government's official web portal to all federal, state and local government web resources and services.